CW8721 Weather Reports


Display with metric or nautical units.
time (UTC)temp
F
wind
direction
speed
MPH
gust
MPH
rain 1hr
in
rain 24hr
in
rain mn
in
humidity
%
barometer
mb
20260903034045 73 248 2.0 5.0 0.00 0.00 0.00 24 1001.7
20260903033543 73 256 2.0 5.0 0.00 0.00 0.00 24 1001.8
20260903033144 73 202 1.0 5.0 0.00 0.00 0.00 24 1001.8
20260903032545 73 238 2.0 5.0 0.00 0.00 0.00 23 1001.8
20260903032044 73 242 2.0 7.0 0.00 0.00 0.00 24 1001.8
20260903031543 73 249 2.0 7.0 0.00 0.00 0.00 23 1001.6
20260903031043 74 257 3.0 7.0 0.00 0.00 0.00 23 1001.6
20260903030543 74 234 4.0 7.0 0.00 0.00 0.00 23 1001.5
20260903030043 74 240 2.0 4.0 0.00 0.00 0.00 24 1001.5
20260903025543 74 265 2.0 6.0 0.00 0.00 0.00 24 1001.5
20260903025043 74 281 2.0 6.0 0.00 0.00 0.00 24 1001.5
20260903024545 74 234 2.0 5.0 0.00 0.00 0.00 23 1001.4
20260903024044 74 252 2.0 4.0 0.00 0.00 0.00 24 1001.3
20260903023542 74 259 1.0 6.0 0.00 0.00 0.00 25 1001.3
20260903023042 74 254 1.0 8.0 0.00 0.00 0.00 24 1001.3
20260903022545 75 275 4.0 8.0 0.00 0.00 0.00 25 1001.4
20260903022042 75 288 4.0 8.0 0.00 0.00 0.00 23 1001.3
20260903021543 75 281 3.0 8.0 0.00 0.00 0.00 22 1001.3
20260903021042 76 278 3.0 8.0 0.00 0.00 0.00 22 1001.3
20260903020541 76 290 5.0 11.0 0.00 0.00 0.00 22 1001.3
20260903020043 76 350 4.0 13.0 0.00 0.00 0.00 23 1001.1
20260903015541 77 323 7.0 13.0 0.00 0.00 0.00 22 1001.1
20260903015040 77 313 8.0 16.0 0.00 0.00 0.00 22 1001.2
20260903014547 78 342 9.0 16.0 0.00 0.00 0.00 20 1001.1
20260903014040 80 26 2.0 11.0 0.00 0.00 0.00 19 1001.2
20260903013540 81 232 4.0 9.0 0.00 0.00 0.00 14 1001.2
20260903013049 82 180 3.0 7.0 0.00 0.00 0.00 13 1001.1
20260903012540 82 180 4.0 8.0 0.00 0.00 0.00 12 1001.1
20260903012039 82 180 3.0 8.0 0.00 0.00 0.00 12 1001.1
20260903011539 82 173 2.0 6.0 0.00 0.00 0.00 14 1001.1
20260903011038 82 182 3.0 7.0 0.00 0.00 0.00 13 1001.1
20260903010538 83 182 4.0 8.0 0.00 0.00 0.00 13 1001.1
20260903010041 83 180 4.0 9.0 0.00 0.00 0.00 13 1001.2
20260903005538 83 175 4.0 9.0 0.00 0.00 0.00 13 1001.2
20260903005037 83 182 5.0 8.0 0.00 0.00 0.00 13 1001.1
20260903004537 83 183 4.0 9.0 0.00 0.00 0.00 13 1001.1
20260903004039 83 200 4.0 9.0 0.00 0.00 0.00 13 1001.1
20260903003538 83 182 3.0 9.0 0.00 0.00 0.00 14 1001.1
20260903003038 83 214 4.0 9.0 0.00 0.00 0.00 15 1001.2
20260903002536 83 184 5.0 8.0 0.00 0.00 0.00 13 1001.2
20260903002035 83 175 3.0 7.0 0.00 0.00 0.00 15 1001.2
20260903001535 83 196 3.0 8.0 0.00 0.00 0.00 15 1001.3
20260903001035 83 197 5.0 9.0 0.00 0.00 0.00 14 1001.2
20260903000535 83 173 6.0 12.0 0.00 0.00 0.00 14 1001.1
20260903000035 83 194 6.0 12.0 0.00 0.00 0.00 13 1001.2
20260902235535 83 187 4.0 8.0 0.00 0.00 0.00 14 1001.1
20260902235034 83 237 3.0 6.0 0.00 0.00 0.00 15 1001.1
20260902234534 83 191 2.0 8.0 0.00 0.00 0.00 14 1001.2
20260902234034 84 200 3.0 8.0 0.00 0.00 0.00 16 1001.3
20260902233534 84 186 4.0 9.0 0.00 0.00 0.00 15 1001.2
20260902233035 84 200 3.0 13.0 0.00 0.00 0.00 15 1001.3
20260902232533 83 250 5.0 14.0 0.00 0.00 0.00 14 1001.4
20260902232032 84 189 8.0 14.0 0.00 0.00 0.00 14 1001.5
20260902231534 84 186 5.0 13.0 0.00 0.00 0.00 13 1001.4
20260902231033 84 182 5.0 13.0 0.00 0.00 0.00 14 1001.5
20260902230533 84 186 5.0 14.0 0.00 0.00 0.00 14 1001.4
20260902230032 84 199 5.0 16.0 0.00 0.00 0.00 14 1001.5
20260902225532 84 135 6.0 18.0 0.00 0.00 0.00 13 1001.3
20260902225032 84 195 6.0 18.0 0.00 0.00 0.00 14 1001.3
20260902224543 84 176 7.0 17.0 0.00 0.00 0.00 14 1001.3
20260902224032 85 195 8.0 17.0 0.00 0.00 0.00 14 1001.2
20260902223533 85 154 7.0 17.0 0.00 0.00 0.00 14 1001.2
20260902223031 85 167 7.0 15.0 0.00 0.00 0.00 15 1001.4
20260902222530 86 171 7.0 15.0 0.00 0.00 0.00 16 1001.4
20260902222037 85 195 5.0 11.0 0.00 0.00 0.00 16 1001.4
20260902221529 85 221 5.0 11.0 0.00 0.00 0.00 14 1001.4
20260902221029 85 194 2.0 7.0 0.00 0.00 0.00 14 1001.5
20260902220530 86 201 4.0 8.0 0.00 0.00 0.00 13 1001.6
20260902220027 85 235 3.0 10.0 0.00 0.00 0.00 16 1001.7
20260902215530 85 178 5.0 14.0 0.00 0.00 0.00 15 1001.8
20260902215026 84 202 6.0 14.0 0.00 0.00 0.00 15 1001.7
20260902214526 84 202 6.0 10.0 0.00 0.00 0.00 15 1001.7
20260902214031 84 188 6.0 12.0 0.00 0.00 0.00 15 1001.8
20260902213525 84 182 7.0 13.0 0.00 0.00 0.00 14 1001.8
20260902213027 84 141 5.0 18.0 0.00 0.00 0.00 15 1001.9
20260902212524 84 157 8.0 18.0 0.00 0.00 0.00 15 1001.9
20260902212025 85 178 11.0 18.0 0.00 0.00 0.00 16 1001.8
20260902211522 85 194 7.0 16.0 0.00 0.00 0.00 16 1001.8
20260902211022 85 195 8.0 17.0 0.00 0.00 0.00 16 1001.9
20260902210522 85 188 5.0 20.0 0.00 0.00 0.00 17 1002.0
20260902210022 84 167 8.0 18.0 0.00 0.00 0.00 17 1001.9
20260902205519 85 192 7.0 16.0 0.00 0.00 0.00 19 1002.0
20260902205018 84 167 7.0 21.0 0.00 0.00 0.00 20 1002.1
20260902204521 84 182 9.0 21.0 0.00 0.00 0.00 21 1002.2
20260902204017 85 163 7.0 21.0 0.00 0.00 0.00 21 1002.2
20260902203515 85 204 7.0 21.0 0.00 0.00 0.00 21 1002.2
20260902203017 84 142 8.0 18.0 0.00 0.00 0.00 22 1002.3
20260902202514 84 188 9.0 26.0 0.00 0.00 0.00 20 1002.3
20260902202014 83 173 10.0 26.0 0.00 0.00 0.00 21 1002.4
20260902201514 83 185 4.0 10.0 0.00 0.00 0.00 22 1002.5
20260902201012 84 216 6.0 16.0 0.00 0.00 0.00 22 1002.6
20260902200511 83 181 8.0 16.0 0.00 0.00 0.00 22 1002.7
20260902200011 84 154 7.0 14.0 0.00 0.00 0.00 22 1002.8
20260902195509 84 165 5.0 15.0 0.00 0.00 0.00 24 1002.9
20260902195007 84 188 8.0 15.0 0.00 0.00 0.00 22 1003.0
20260902194513 83 192 7.0 14.0 0.00 0.00 0.00 22 1003.0
20260902194005 83 167 6.0 19.0 0.00 0.00 0.00 22 1003.0
20260902193504 82 155 8.0 19.0 0.00 0.00 0.00 24 1003.1
20260902193004 82 134 10.0 19.0 0.00 0.00 0.00 23 1003.1
20260902192502 82 172 9.0 20.0 0.00 0.00 0.00 24 1003.3
20260902192102 82 174 10.0 22.0 0.00 0.00 0.00 26 1003.3
20260902191501 82 177 7.0 16.0 0.00 0.00 0.00 26 1003.3
20260902191101 82 154 8.0 16.0 0.00 0.00 0.00 25 1003.3
20260902190600 82 161 7.0 19.0 0.00 0.00 0.00 25 1003.4
20260902190113 82 140 9.0 22.0 0.00 0.00 0.00 26 1003.5
20260902185602 81 175 10.0 29.0 0.00 0.00 0.00 26 1003.6
20260902185059 82 167 12.0 28.0 0.00 0.00 0.00 26 1003.7
20260902184557 81 182 7.0 17.0 0.00 0.00 0.00 26 1003.6
20260902184056 81 147 8.0 18.0 0.00 0.00 0.00 26 1003.7
20260902183600 81 206 11.0 23.0 0.00 0.00 0.00 26 1003.9
20260902183106 81 186 10.0 23.0 0.00 0.00 0.00 27 1003.7
20260902182553 81 186 8.0 24.0 0.00 0.00 0.00 26 1003.9
20260902182053 80 128 13.0 24.0 0.00 0.00 0.00 27 1003.8
20260902181553 80 169 8.0 18.0 0.00 0.00 0.00 28 1003.8
20260902181051 80 184 8.0 18.0 0.00 0.00 0.00 28 1003.9
20260902180550 80 180 10.0 18.0 0.00 0.00 0.00 28 1003.9
20260902180050 80 189 8.0 20.0 0.00 0.00 0.00 29 1003.9
20260902175548 80 175 7.0 17.0 0.00 0.00 0.00 29 1004.1
20260902175049 80 171 8.0 16.0 0.00 0.00 0.00 29 1004.1
20260902174547 80 180 8.0 24.0 0.00 0.00 0.00 30 1004.1
20260902174046 80 182 11.0 20.0 0.00 0.00 0.00 31 1004.2
20260902173546 79 191 9.0 19.0 0.00 0.00 0.00 31 1004.2
20260902173044 79 190 9.0 18.0 0.00 0.00 0.00 31 1004.3
20260902172543 80 159 7.0 18.0 0.00 0.00 0.00 32 1004.3
20260902172042 79 207 11.0 18.0 0.00 0.00 0.00 31 1004.4
20260902171542 79 181 10.0 21.0 0.00 0.00 0.00 31 1004.3
20260902171045 79 173 9.0 21.0 0.00 0.00 0.00 31 1004.3
20260902170547 79 182 11.0 17.0 0.00 0.00 0.00 30 1004.4
20260902170039 79 178 8.0 17.0 0.00 0.00 0.00 31 1004.4
20260902165538 79 184 9.0 19.0 0.00 0.00 0.00 30 1004.5
20260902165037 79 154 10.0 19.0 0.00 0.00 0.00 30 1004.4
20260902164536 79 182 10.0 17.0 0.00 0.00 0.00 32 1004.3
20260902164034 78 139 9.0 20.0 0.00 0.00 0.00 32 1004.3
20260902163533 78 145 12.0 20.0 0.00 0.00 0.00 33 1004.3
20260902163031 78 165 10.0 17.0 0.00 0.00 0.00 34 1004.3
20260902162530 77 188 7.0 17.0 0.00 0.00 0.00 36 1004.4
20260902162029 77 185 7.0 14.0 0.00 0.00 0.00 37 1004.6
20260902161539 77 188 7.0 19.0 0.00 0.00 0.00 37 1004.6
20260902161028 77 183 9.0 21.0 0.00 0.00 0.00 37 1004.7
20260902160527 77 159 8.0 17.0 0.00 0.00 0.00 37 1004.6
20260902160032 77 137 6.0 16.0 0.00 0.00 0.00 38 1004.6
20260902155523 77 122 6.0 16.0 0.00 0.00 0.00 38 1004.5
20260902155023 76 186 6.0 13.0 0.00 0.00 0.00 38 1004.7
20260902154541 76 178 6.0 13.0 0.00 0.00 0.00 38 1004.7
20260902154014 76 161 5.0 17.0 0.00 0.00 0.00 39 1004.7
20260902153513 75 202 6.0 15.0 0.00 0.00 0.00 39 1004.7
20260902153011 75 175 6.0 15.0 0.00 0.00 0.00 39 1004.7
20260902152509 75 159 8.0 14.0 0.00 0.00 0.00 39 1004.8
20260902152008 75 121 9.0 20.0 0.00 0.00 0.00 39 1004.7
20260902151507 74 194 7.0 20.0 0.00 0.00 0.00 41 1004.8
20260902151005 74 179 7.0 15.0 0.00 0.00 0.00 41 1004.7
20260902150507 73 182 5.0 13.0 0.00 0.00 0.00 43 1004.7
20260902150004 73 144 6.0 13.0 0.00 0.00 0.00 43 1004.6
20260902145502 73 171 5.0 12.0 0.00 0.00 0.00 44 1004.5
20260902145000 73 172 6.0 12.0 0.00 0.00 0.00 44 1004.4
20260902144607 73 184 6.0 14.0 0.00 0.00 0.00 44 1004.4
20260902144100 72 178 4.0 16.0 0.00 0.00 0.00 45 1004.4
20260902143559 72 109 5.0 16.0 0.00 0.00 0.00 46 1004.3
20260902143058 72 173 5.0 15.0 0.00 0.00 0.00 46 1004.4
20260902142558 71 140 6.0 16.0 0.00 0.00 0.00 47 1004.3
20260902142059 71 158 7.0 16.0 0.00 0.00 0.00 47 1004.5
20260902141600 71 171 5.0 11.0 0.00 0.00 0.00 47 1004.4
20260902141055 71 210 4.0 14.0 0.00 0.00 0.00 47 1004.3
20260902140555 71 153 6.0 15.0 0.00 0.00 0.00 47 1004.4
20260902140057 70 181 6.0 14.0 0.00 0.00 0.00 47 1004.4
20260902135554 70 185 5.0 10.0 0.00 0.00 0.00 48 1004.4
20260902135053 70 180 4.0 10.0 0.00 0.00 0.00 48 1004.3
20260902134553 69 194 4.0 10.0 0.00 0.00 0.00 49 1004.3
20260902134052 69 134 3.0 9.0 0.00 0.00 0.00 50 1004.2
20260902133552 68 138 2.0 11.0 0.00 0.00 0.00 50 1004.3
20260902133104 68 145 4.0 11.0 0.00 0.00 0.00 51 1004.3
20260902132553 68 147 3.0 8.0 0.00 0.00 0.00 52 1004.3
20260902132048 68 144 4.0 8.0 0.00 0.00 0.00 52 1004.4
20260902131548 68 145 3.0 6.0 0.00 0.00 0.00 52 1004.5
20260902131047 68 128 3.0 7.0 0.00 0.00 0.00 52 1004.5
20260902130546 68 167 3.0 7.0 0.00 0.00 0.00 52 1004.4
20260902130046 68 178 3.0 7.0 0.00 0.00 0.00 51 1004.3
20260902125550 68 160 3.0 7.0 0.00 0.00 0.00 51 1004.3
20260902125014 68 151 3.0 8.0 0.00 0.00 0.00 51 1004.2
20260902124555 68 132 3.0 10.0 0.00 0.00 0.00 51 1004.3
20260902124515 68 159 4.0 10.0 0.00 0.00 0.00 50 1004.3
20260902123549 69 178 3.0 9.0 0.00 0.00 0.00 50 1004.4
20260902122606 69 122 4.0 8.0 0.00 0.00 0.00 49 1004.4
20260902120035 70 183 4.0 7.0 0.00 0.00 0.00 47 1004.3
20260902115532 70 180 4.0 8.0 0.00 0.00 0.00 46 1004.2
20260902115032 70 178 3.0 10.0 0.00 0.00 0.00 46 1004.2
20260902114536 70 189 4.0 12.0 0.00 0.00 0.00 46 1004.2
20260902114032 70 173 5.0 12.0 0.00 0.00 0.00 46 1004.3
20260902113532 70 156 5.0 8.0 0.00 0.00 0.00 46 1004.3
20260902113031 69 182 4.0 8.0 0.00 0.00 0.00 45 1004.3
20260902112531 69 177 4.0 8.0 0.00 0.00 0.00 45 1004.3
20260902112030 70 186 3.0 9.0 0.00 0.00 0.00 45 1004.3
20260902111538 70 179 4.0 11.0 0.00 0.00 0.00 44 1004.3
20260902111029 70 155 5.0 11.0 0.00 0.00 0.00 44 1004.3
20260902110528 70 181 4.0 8.0 0.00 0.00 0.00 44 1004.3
20260902110035 70 158 4.0 9.0 0.00 0.00 0.00 45 1004.3
20260902105528 70 186 4.0 9.0 0.00 0.00 0.00 45 1004.2
20260902105029 70 186 4.0 7.0 0.00 0.00 0.00 44 1004.2
20260902104538 70 184 4.0 8.0 0.00 0.00 0.00 45 1004.3
20260902104028 71 180 4.0 10.0 0.00 0.00 0.00 44 1004.2
20260902103530 71 178 5.0 10.0 0.00 0.00 0.00 44 1004.2
20260902103028 71 157 3.0 8.0 0.00 0.00 0.00 44 1004.2
20260902102528 71 186 5.0 9.0 0.00 0.00 0.00 44 1004.3
20260902102028 71 184 5.0 10.0 0.00 0.00 0.00 44 1004.2
20260902101531 71 188 5.0 10.0 0.00 0.00 0.00 44 1004.3
20260902101027 71 183 5.0 12.0 0.00 0.00 0.00 44 1004.3
20260902100527 71 182 5.0 10.0 0.00 0.00 0.00 44 1004.3
20260902100032 70 183 5.0 10.0 0.00 0.00 0.00 44 1004.2
20260902095527 70 167 5.0 10.0 0.00 0.00 0.00 44 1004.4
20260902095026 70 144 5.0 8.0 0.00 0.00 0.00 45 1004.3
20260902094525 70 182 4.0 8.0 0.00 0.00 0.00 46 1004.4
20260902094026 70 157 2.0 12.0 0.00 0.00 0.00 46 1004.5
20260902093525 70 173 5.0 12.0 0.00 0.00 0.00 47 1004.4
20260902093025 70 178 4.0 10.0 0.00 0.00 0.00 48 1004.6
20260902092524 70 180 4.0 9.0 0.00 0.00 0.00 48 1004.6
20260902092024 70 165 4.0 12.0 0.00 0.00 0.00 48 1004.5
20260902091539 71 105 4.0 12.0 0.00 0.00 0.00 48 1004.5
20260902091027 71 160 6.0 12.0 0.00 0.00 0.00 48 1004.5
20260902090524 71 177 6.0 10.0 0.00 0.00 0.00 48 1004.5
20260902090023 71 165 5.0 11.0 0.00 0.00 0.00 48 1004.5
20260902085522 71 138 6.0 10.0 0.00 0.00 0.00 48 1004.5
20260902085022 71 185 6.0 11.0 0.00 0.00 0.00 48 1004.5
20260902084522 71 183 6.0 11.0 0.00 0.00 0.00 48 1004.5
20260902084023 70 154 4.0 10.0 0.00 0.00 0.00 49 1004.5
20260902083524 70 150 5.0 8.0 0.00 0.00 0.00 51 1004.5
20260902083021 70 178 3.0 9.0 0.00 0.00 0.00 51 1004.6
20260902082520 70 182 5.0 10.0 0.00 0.00 0.00 51 1004.6
20260902082019 70 150 6.0 12.0 0.00 0.00 0.00 50 1004.6
20260902081522 71 171 4.0 12.0 0.00 0.00 0.00 50 1004.6
20260902081017 71 141 6.0 10.0 0.00 0.00 0.00 49 1004.7
20260902080517 71 136 5.0 11.0 0.00 0.00 0.00 48 1004.7
20260902080015 72 157 5.0 11.0 0.00 0.00 0.00 48 1004.6
20260902075515 72 185 5.0 11.0 0.00 0.00 0.00 47 1004.6
20260902075014 72 150 5.0 14.0 0.00 0.00 0.00 47 1004.6
20260902074514 72 150 7.0 15.0 0.00 0.00 0.00 46 1004.6
20260902074014 72 156 7.0 18.0 0.00 0.00 0.00 46 1004.4
20260902073512 72 196 8.0 17.0 0.00 0.00 0.00 45 1004.3
20260902073017 72 170 9.0 17.0 0.00 0.00 0.00 44 1004.3
20260902072512 72 171 7.0 13.0 0.00 0.00 0.00 44 1004.3
20260902072011 73 163 6.0 15.0 0.00 0.00 0.00 44 1004.1
20260902071517 73 174 7.0 17.0 0.00 0.00 0.00 44 1004.2
20260902071011 73 132 6.0 17.0 0.00 0.00 0.00 44 1004.1
20260902070511 72 179 7.0 12.0 0.00 0.00 0.00 45 1004.1
20260902070009 72 143 6.0 14.0 0.00 0.00 0.00 46 1004.2
20260902065509 72 167 7.0 14.0 0.00 0.00 0.00 46 1004.1
20260902065011 72 156 5.0 14.0 0.00 0.00 0.00 46 1004.2
20260902064507 71 204 5.0 12.0 0.00 0.00 0.00 48 1004.2
20260902064006 71 155 5.0 12.0 0.00 0.00 0.00 50 1004.1
20260902063506 71 198 6.0 10.0 0.00 0.00 0.00 50 1004.2
20260902063009 71 156 5.0 9.0 0.00 0.00 0.00 50 1004.2
20260902062508 71 171 5.0 11.0 0.00 0.00 0.00 51 1004.2
20260902062003 72 186 5.0 13.0 0.00 0.00 0.00 49 1004.0
20260902061502 72 173 5.0 13.0 0.00 0.00 0.00 48 1004.1
20260902061002 72 181 6.0 13.0 0.00 0.00 0.00 48 1004.2
20260902060501 72 186 5.0 12.0 0.00 0.00 0.00 48 1004.1
20260902055559 72 140 6.0 13.0 0.00 0.00 0.00 48 1004.1
20260902055059 72 178 4.0 11.0 0.00 0.00 0.00 48 1004.2
20260902054603 72 135 4.0 11.0 0.00 0.00 0.00 48 1004.3
20260902054058 72 139 4.0 13.0 0.00 0.00 0.00 47 1004.3
20260902053602 73 144 5.0 11.0 0.00 0.00 0.00 46 1004.3
20260902053059 73 171 6.0 11.0 0.00 0.00 0.00 47 1004.2
20260902052559 73 179 5.0 10.0 0.00 0.00 0.00 47 1004.4
20260902052057 73 182 4.0 11.0 0.00 0.00 0.00 47 1004.4
20260902051559 73 141 5.0 11.0 0.00 0.00 0.00 46 1004.4
20260902051057 73 167 6.0 12.0 0.00 0.00 0.00 46 1004.5
20260902050559 74 166 6.0 14.0 0.00 0.00 0.00 46 1004.5
20260902050105 74 175 7.0 14.0 0.00 0.00 0.00 46 1004.4
20260902045559 74 169 7.0 13.0 0.00 0.00 0.00 46 1004.5
20260902045058 73 171 5.0 12.0 0.00 0.00 0.00 46 1004.5
20260902044556 73 177 4.0 11.0 0.00 0.00 0.00 46 1004.6